Location: Kergonan
(48.2337°N, 4.5518°W)
Time: 12:13:00
(UTC+00:00)

H-2A R/B - Pass Details

Date: 18 January 2020
Orbit: 503 x 540 km, 97.3° (Epoch: 06 February)

Event Time Altitude Azimuth Distance (km) Brightness Sun altitude
Rises 06:44:10 0° 11° (N) 2,711 6.3 -12.7°
Reaches altitude 10° 06:46:18 10° 10° (N) 1,814 5.4 -12.4°
Maximum altitude 06:50:14 80° 285° (WNW) 555 2.7 -11.7°
Drops below altitude 10° 06:54:07 10° 198° (SSW) 1,793 5.4 -11.1°
Sets 06:56:12 0° 197° (SSW) 2,675 6.4 -10.8°
